Munising, MI

7:31 AM EDT on May 30, 2017 (GMT -0400)
Munising

Weather History for KP53 - March, 2014

Change the Weather History Date:

Friday, March 7, 2014

  Actual Average (KISQ) Record (KISQ)
Temperature  
Mean Temperature 26 °F -  
Max Temperature 30 °F 32 °F 57 °F (1987)
Min Temperature 21 °F 14 °F -9 °F (1984)
Degree Days  
Heating Degree Days 40    
Moisture  
Dew Point 19 °F    
Average Humidity 77    
Maximum Humidity 85    
Minimum Humidity 68    
Precipitation  
Precipitation 0.31 in - - ()
Sea Level Pressure  
Sea Level Pressure 29.92 in    
Wind  
Wind Speed 10 mph (SW)    
Max Wind Speed 20 mph    
Max Gust Speed 29 mph    
Averages and records for this station are not official NWS values.
T = Trace of Precipitation, MM = Missing Value Source: NWS Daily Summary

Daily Weather History Graph

Daily Weather History Graph

Search for Another Location

Airport or City:

Trip Planner

Search our weather history database for the weather conditions in past years. The results will help you decide how hot, cold, wet, or windy it might be!

Date:

Astronomy

Mar. 07, 2014 Rise Set
Actual Time 7:14 AM EST 6:41 PM EST
Civil Twilight 6:44 AM EST 7:11 PM EST
Nautical Twilight 6:09 AM EST 7:46 PM EST
Astronomical Twilight 5:34 AM EST 8:21 PM EST
Moon 10:46 AM EST (3/7) 1:06 AM EST (3/7)
Length of Visible Light 12h 26m
Length of Day
11h 26m
Waxing Crescent, 42% of the Moon is Illuminated
Mar 7
Waxing Crescent
Mar 8
First Quarter
Mar 16
Full
Mar 23
Last Quarter
Mar 30
New

Hourly Weather History & Observations

Time (EST) Temp. Windchill Dew Point Humidity Pressure Visibility Wind Dir Wind Speed Gust Speed Precip Events Conditions
12:56 AM 21.9 °F 11.0 °F 14.0 °F 72% 29.99 in - SSW 10.4 mph 18.4 mph N/A   Unknown
1:56 AM 21.0 °F 11.4 °F 14.0 °F 74% 29.97 in - South 8.1 mph - N/A   Unknown
2:56 AM 21.9 °F 9.2 °F 14.0 °F 72% 29.94 in - South 13.8 mph - N/A   Unknown
3:56 AM 23.0 °F 13.1 °F 14.0 °F 68% 29.94 in - SSW 9.2 mph 17.3 mph N/A   Unknown
4:56 AM 23.0 °F 12.4 °F 14.0 °F 68% 29.92 in - South 10.4 mph - N/A   Unknown
5:56 AM 23.0 °F 11.1 °F 14.0 °F 68% 29.90 in - SSW 12.7 mph 21.9 mph N/A   Unknown
6:56 AM 23.0 °F 11.1 °F 14.0 °F 68% 29.88 in - SSW 12.7 mph 21.9 mph N/A   Unknown
7:56 AM 23.0 °F 13.9 °F 14.0 °F 68% 29.88 in - SSW 8.1 mph - N/A   Unknown
8:56 AM 23.0 °F 14.7 °F 16.0 °F 74% 29.87 in - South 6.9 mph - 0.01 in   Unknown
9:56 AM 24.1 °F 14.4 °F 17.1 °F 75% 29.86 in - South 9.2 mph - 0.01 in   Unknown
10:56 AM 25.0 °F 14.8 °F 19.0 °F 78% 29.86 in - SSW 10.4 mph - 0.05 in   Unknown
11:56 AM 26.1 °F 20.5 °F 19.9 °F 78% 29.84 in - South 4.6 mph - 0.03 in   Unknown
12:56 PM 27.0 °F 20.5 °F 21.9 °F 81% 29.84 in - South 5.8 mph - 0.07 in   Unknown
1:56 PM 28.0 °F - 23.0 °F 81% 29.84 in - Calm Calm - 0.06 in   Unknown
2:56 PM 28.9 °F - 24.1 °F 82% 29.84 in - Calm Calm - 0.03 in   Unknown
3:56 PM 28.9 °F - 25.0 °F 85% 29.86 in - Calm Calm - 0.02 in   Unknown
4:56 PM 30.0 °F 22.4 °F 25.0 °F 82% 29.88 in - North 8.1 mph - 0.01 in   Unknown
5:56 PM 30.0 °F 21.7 °F 26.1 °F 85% 29.90 in - NNW 9.2 mph - 0.01 in   Unknown
6:56 PM 30.0 °F 21.1 °F 26.1 °F 85% 29.93 in - North 10.4 mph 17.3 mph N/A   Unknown
7:56 PM 28.0 °F 15.3 °F 23.0 °F 81% 29.97 in - NNW 18.4 mph 28.8 mph 0.01 in   Unknown
8:56 PM 28.9 °F 19.2 °F 24.1 °F 82% 29.99 in - NNW 11.5 mph 19.6 mph N/A   Unknown
9:56 PM 28.9 °F 16.1 °F 24.1 °F 82% 30.02 in - North 19.6 mph - N/A   Unknown
10:56 PM 25.0 °F 11.3 °F 19.0 °F 78% 30.06 in - North 18.4 mph - N/A   Unknown
11:56 PM 24.1 °F 11.0 °F 17.1 °F 75% 30.09 in - North 16.1 mph - N/A   Unknown